Tracking 31027 objects as of 19-Jul-2025
HD Live streaming from Space Station
objects crossing your sky now

FENGYUN 1C DEB

Track FENGYUN 1C DEB now!
10-day predictions


NORAD ID: 37065
Int'l Code: 1999-025EEZ
Perigee: 825.6 km
Apogee: 1,272.0 km
Inclination: 103.3 °
Period: 106.0 minutes
Semi major axis: 7419 km
RCS: 0.0153 m2 (small)
Launch date: May 10, 1999
Source: People's Republic of China (PRC)
Launch site: Taiyaun Space Center, China (TSC)

Note: This is SATELLITE DEBRIS
Your satellite tracking list
SL-8 DEB
Track 1 satellite(s)




NASA's NSSDC Master Catalog

Two Line Element Set (TLE):
1 37065U 99025EEZ 25199.62431681  .00002839  00000-0  29789-2 0  9992
2 37065 103.2966 322.7632 0300853 199.8742 159.0453 13.58356043863882
Source of the keplerian elements: AFSPC